This is the latest recevied weather packets stored in our database for station/object AE5PL. If no packets are shown the sender has not sent any weather packets the latest 10 day(s).
| Time | Temp. | Humidity | Pressure | Rain* | Wind** | Luminosity | Snow |
|---|---|---|---|---|---|---|---|
| 1777662404 | 18.33° C | 58% | 1015.7 hPa | 0.51 mm | - | - | - |
| 1777662104 | 18.33° C | 60% | 1015.6 hPa | 0.51 mm | - | - | - |
| 1777661804 | 17.78° C | 58% | 1015.7 hPa | 0.51 mm | - | - | - |
| 1777661504 | 17.78° C | 59% | 1015.9 hPa | 0.51 mm | - | - | - |
| 1777661204 | 17.78° C | 59% | 1016 hPa | 0.51 mm | - | - | - |
| 1777660904 | 17.22° C | 60% | 1016.2 hPa | 0.51 mm | - | - | - |
| 1777660604 | 17.22° C | 62% | 1016.2 hPa | 0.51 mm | - | - | - |
| 1777660304 | 16.67° C | 61% | 1016.3 hPa | 0.51 mm | - | - | - |
| 1777660004 | 16.67° C | 61% | 1016.4 hPa | 0.51 mm | - | - | - |
| 1777659704 | 16.67° C | 62% | 1016.6 hPa | 0.51 mm | - | - | - |
| 1777659404 | 16.67° C | 63% | 1016.7 hPa | 0.51 mm | - | - | - |
| 1777659104 | 16.67° C | 63% | 1016.7 hPa | 0.51 mm | - | - | - |
| 1777658804 | 16.67° C | 62% | 1016.9 hPa | 0.51 mm | - | - | - |
| 1777658504 | 16.67° C | 61% | 1016.9 hPa | 0.51 mm | - | - | - |
| 1777658204 | 16.67° C | 64% | 1017.1 hPa | 0.51 mm | - | - | - |
| 1777657904 | 16.67° C | 60% | 1017.2 hPa | 0.51 mm | - | - | - |
| 1777657604 | 16.67° C | 61% | 1017.2 hPa | 0.51 mm | - | - | - |
| 1777657304 | 16.67° C | 63% | 1017.3 hPa | 0.51 mm | - | - | - |
| 1777657004 | 16.67° C | 65% | 1017.3 hPa | 0.51 mm | - | - | - |
| 1777656704 | 16.67° C | 67% | 1017.4 hPa | 0.51 mm | - | - | - |
| 1777656404 | 16.67° C | 66% | 1017.2 hPa | 0.51 mm | - | - | - |
| 1777656104 | 16.67° C | 68% | 1017.2 hPa | 0.51 mm | - | - | - |
| 1777655804 | 16.67° C | 70% | 1017.4 hPa | 0.51 mm | - | - | - |
| 1777655504 | 16.11° C | 67% | 1017.4 hPa | 0.51 mm | - | - | - |
| 1777655204 | 16.11° C | 71% | 1017.6 hPa | 0.51 mm | - | - | - |
* Rain latest 24 hours (hover to see other rain measurements)
** Current wind speed in m/s (hover to see current wind gust speed)